Weather History for Louisa, VA

Change the Weather History Date:

Wednesday, February 6, 2013

  Actual Average (KCHO) Record (KCHO)
Temperature  
Mean Temperature 40 °F 37 °F  
Max Temperature 55 °F 47 °F 77 °F (1991)
Min Temperature 26 °F 27 °F 1 °F (1996)
Degree Days  
Heating Degree Days 24 28  
Month to date heating degree days 172  
Since 1 July heating degree days 2832  
Cooling Degree Days 0 0  
Month to date cooling degree days 0  
Year to date cooling degree days 0  
Moisture  
Dew Point 27 °F    
Average Humidity 62    
Maximum Humidity 93    
Minimum Humidity 31    
Precipitation  
Precipitation 0.00 in 0.07 in 1.28 in (2004)
Month to date precipitation 0.45  
Year to date precipitation 3.22  
Sea Level Pressure  
Sea Level Pressure 30.12 in    
Wind  
Wind Speed 2 mph (North)    
Max Wind Speed 12 mph    
Max Gust Speed 16 mph    
Visibility 10 miles    
Events      
T = Trace of Precipitation, MM = Missing Value Source: NWS Daily Summary

Daily Weather History Graph

Daily Weather History Graph

Search for Another Location

Airport:

Trip Planner

Search our weather history database for the weather conditions in past years. The results will help you decide how hot, cold, wet, or windy it might be!

Date:

Astronomy

Feb. 06, 2013 Rise Set
Actual Time 7:11 AM EST 5:40 PM EST
Civil Twilight 6:44 AM EST 6:08 PM EST
Nautical Twilight 6:12 AM EST 6:39 PM EST
Astronomical Twilight 5:42 AM EST 7:10 PM EST
Moon 3:51 AM EST (2/6) 1:59 PM EST (2/6)
Length of Visible Light 11h 24m
Length of Day
10h 29m
Waning Crescent, 17% of the Moon is Illuminated
Feb 6
Waning Crescent
Feb 10
New
Feb 17
First Quarter
Feb 25
Full
Mar 4
Last Quarter

Hourly Weather History & Observations

Time (EST) Temp. Windchill Dew Point Humidity Pressure Visibility Wind Dir Wind Speed Gust Speed Precip Events Conditions
12:15 AM 39.2 °F - 30.2 °F 70% 29.91 in 10.0 mi Calm Calm - N/A   Scattered Clouds
12:35 AM 37.4 °F - 30.2 °F 75% 29.91 in 10.0 mi Calm Calm - N/A   Scattered Clouds
12:55 AM 35.6 °F - 28.4 °F 75% 29.91 in 10.0 mi Calm Calm - N/A   Scattered Clouds
1:15 AM 35.6 °F 32.8 °F 30.2 °F 81% 29.92 in 10.0 mi NNW 3.5 mph - N/A   Overcast
1:35 AM 35.6 °F - 28.4 °F 75% 29.92 in 10.0 mi Calm Calm - N/A   Mostly Cloudy
2:15 AM 35.6 °F - 28.4 °F 75% 29.93 in 10.0 mi Calm Calm - N/A   Overcast
2:35 AM 33.8 °F - 26.6 °F 75% 29.93 in 10.0 mi Calm Calm - N/A   Scattered Clouds
2:55 AM 32.0 °F - 26.6 °F 80% 29.94 in 10.0 mi Calm Calm - N/A   Clear
3:15 AM 33.8 °F - 26.6 °F 75% 29.94 in 10.0 mi Calm Calm - N/A   Clear
3:35 AM 28.4 °F - 24.8 °F 86% 29.94 in 10.0 mi Calm Calm - N/A   Clear
3:55 AM 28.4 °F - 26.6 °F 93% 29.94 in 10.0 mi Calm Calm - N/A   Scattered Clouds
4:15 AM 28.4 °F - 26.6 °F 93% 29.95 in 10.0 mi Calm Calm - N/A   Scattered Clouds
4:35 AM 26.6 °F - 24.8 °F 93% 29.95 in 10.0 mi Calm Calm - N/A   Scattered Clouds
4:55 AM 30.2 °F - 26.6 °F 86% 29.96 in 10.0 mi Calm Calm - N/A   Mostly Cloudy
5:15 AM 30.2 °F 24.3 °F 28.4 °F 93% 29.98 in 10.0 mi North 5.8 mph - N/A   Overcast
5:35 AM 30.2 °F - 26.6 °F 86% 30.00 in 10.0 mi Calm Calm - N/A   Overcast
5:55 AM 30.2 °F - 26.6 °F 86% 30.01 in 10.0 mi Calm Calm - N/A   Scattered Clouds
6:15 AM 28.4 °F - 26.6 °F 93% 30.02 in 7.0 mi Calm Calm - N/A   Clear
6:35 AM 28.4 °F - 26.6 °F 93% 30.03 in 10.0 mi Calm Calm - N/A   Scattered Clouds
6:55 AM 30.2 °F 24.3 °F 26.6 °F 86% 30.05 in 10.0 mi North 5.8 mph - N/A   Scattered Clouds
7:15 AM 28.4 °F - 26.6 °F 93% 30.06 in 10.0 mi Calm Calm - N/A   Scattered Clouds
7:35 AM 28.4 °F - 26.6 °F 93% 30.07 in 10.0 mi Calm Calm - N/A   Clear
8:15 AM 33.8 °F - 28.4 °F 81% 30.10 in 10.0 mi Calm Calm - N/A   Clear
8:35 AM 35.6 °F - 28.4 °F 75% 30.11 in 10.0 mi Calm Calm - N/A   Clear
8:55 AM 37.4 °F - 28.4 °F 70% 30.11 in 10.0 mi Calm Calm - N/A   Clear
9:15 AM 41.0 °F - 30.2 °F 65% 30.13 in 10.0 mi Calm Calm - N/A   Clear
9:35 AM 42.8 °F - 30.2 °F 61% 30.13 in 10.0 mi Calm Calm - N/A   Clear
9:55 AM 44.6 °F 42.2 °F 32.0 °F 61% 30.14 in 10.0 mi East 4.6 mph - N/A   Clear
10:15 AM 44.6 °F 43.1 °F 32.0 °F 61% 30.15 in 10.0 mi SE 3.5 mph - N/A   Clear
10:35 AM 46.4 °F 45.2 °F 32.0 °F 57% 30.15 in 10.0 mi North 3.5 mph - N/A   Clear
10:55 AM 48.2 °F - 32.0 °F 54% 30.16 in 10.0 mi North 3.5 mph - N/A   Clear
11:35 AM 51.8 °F - 30.2 °F 44% 30.15 in 10.0 mi NNW 8.1 mph - N/A   Clear
11:55 AM 50.0 °F - 30.2 °F 47% 30.15 in 10.0 mi West 5.8 mph - N/A   Clear
12:15 PM 53.6 °F - 28.4 °F 38% 30.15 in 10.0 mi WNW 11.5 mph - N/A   Clear
12:35 PM 53.6 °F - 28.4 °F 38% 30.15 in 10.0 mi WSW 6.9 mph - N/A   Clear
12:55 PM 53.6 °F - 26.6 °F 35% 30.14 in 10.0 mi West 8.1 mph - N/A   Clear
1:15 PM 53.6 °F - 26.6 °F 35% 30.15 in 10.0 mi West 6.9 mph - N/A   Clear
1:35 PM 53.6 °F - 26.6 °F 35% 30.14 in 10.0 mi WNW 11.5 mph 16.1 mph N/A   Clear
1:55 PM 55.4 °F - 28.4 °F 36% 30.13 in 10.0 mi West 3.5 mph - N/A   Clear
2:15 PM 55.4 °F - 26.6 °F 33% 30.13 in 10.0 mi West 8.1 mph - N/A   Clear
2:35 PM 55.4 °F - 26.6 °F 33% 30.14 in 10.0 mi NNW 5.8 mph - N/A   Clear
2:55 PM 55.4 °F - 26.6 °F 33% 30.14 in 10.0 mi West 8.1 mph - N/A   Clear
3:15 PM 55.4 °F - 26.6 °F 33% 30.14 in 10.0 mi WNW 6.9 mph - N/A   Clear
3:35 PM 55.4 °F - 26.6 °F 33% 30.15 in 10.0 mi WNW 10.4 mph - N/A   Clear
3:55 PM 55.4 °F - 24.8 °F 31% 30.15 in 10.0 mi NNW 5.8 mph - N/A   Clear
4:15 PM 55.4 °F - 26.6 °F 33% 30.16 in 10.0 mi West 6.9 mph - N/A   Clear
4:35 PM 53.6 °F - 24.8 °F 33% 30.16 in 10.0 mi Calm Calm - N/A   Clear
4:55 PM 53.6 °F - 24.8 °F 33% 30.16 in 10.0 mi NNW 4.6 mph - N/A   Clear
5:15 PM 51.8 °F - 24.8 °F 35% 30.18 in 10.0 mi NNW 3.5 mph - N/A   Clear
5:35 PM 51.8 °F - 24.8 °F 35% 30.18 in 10.0 mi Calm Calm - N/A   Clear
5:55 PM 48.2 °F - 24.8 °F 40% 30.19 in 10.0 mi Calm Calm - N/A   Clear
6:15 PM 41.0 °F - 28.4 °F 61% 30.20 in 10.0 mi Calm Calm - N/A   Clear
6:35 PM 44.6 °F 41.4 °F 26.6 °F 49% 30.22 in 10.0 mi NE 5.8 mph - N/A   Clear
6:55 PM 44.6 °F 40.7 °F 26.6 °F 49% 30.23 in 10.0 mi NNE 6.9 mph - N/A   Clear
7:15 PM 44.6 °F 39.7 °F 26.6 °F 49% 30.24 in 10.0 mi NE 9.2 mph - N/A   Clear
7:35 PM 42.8 °F 38.0 °F 26.6 °F 53% 30.25 in 10.0 mi NE 8.1 mph - N/A   Clear
7:55 PM 42.8 °F 37.5 °F 26.6 °F 53% 30.26 in 10.0 mi NE 9.2 mph - N/A   Clear
8:15 PM 39.2 °F 35.0 °F 26.6 °F 61% 30.28 in 10.0 mi ENE 5.8 mph - N/A   Clear
8:35 PM 39.2 °F 37.0 °F 26.6 °F 61% 30.28 in 10.0 mi ENE 3.5 mph - N/A   Clear
8:55 PM 37.4 °F 32.8 °F 26.6 °F 65% 30.29 in 10.0 mi East 5.8 mph - N/A   Clear
9:15 PM 37.4 °F 33.8 °F 26.6 °F 65% 30.30 in 10.0 mi East 4.6 mph - N/A   Clear
9:35 PM 37.4 °F 33.8 °F 26.6 °F 65% 30.31 in 10.0 mi East 4.6 mph - N/A   Clear
9:55 PM 35.6 °F 31.7 °F 26.6 °F 70% 30.32 in 10.0 mi ENE 4.6 mph - N/A   Clear
10:15 PM 35.6 °F 31.7 °F 24.8 °F 65% 30.32 in 10.0 mi ENE 4.6 mph - N/A   Clear
10:35 PM 35.6 °F 31.7 °F 24.8 °F 65% 30.30 in 10.0 mi ENE 4.6 mph - N/A   Clear
10:55 PM 33.8 °F 30.8 °F 24.8 °F 70% 30.31 in 10.0 mi East 3.5 mph - N/A   Clear
11:15 PM 32.0 °F 26.4 °F 24.8 °F 75% 30.31 in 10.0 mi ENE 5.8 mph - N/A   Clear
11:35 PM 33.8 °F 29.6 °F 24.8 °F 70% 30.31 in 10.0 mi ENE 4.6 mph - N/A   Clear
11:55 PM 33.8 °F 29.6 °F 24.8 °F 70% 30.32 in 10.0 mi ENE 4.6 mph - N/A   Clear